This demonstration page uses our WeatherBlox Daily Observations layout. Learn more.

Left ArrowRight Arrow

34.16533, -84.80231

Hourly Observations for March 20, 2022

Temp ( °F °C ) Dew Point ( °F °C ) Humidity (%) Winds ( mph kmh ) Pressure ( in mb ) Visibility ( mi km ) Precip ( " mm )
12:15 am 00:15 Mostly Clear 46 8 37 3 71 71 WSW 5 7 30.20 1023 10 16 0.00 0.00
12:35 am 00:35 Clear 46 8 37 3 71 71 Calm 30.20 1023 10 16 0.00 0.00
12:55 am 00:55 Clear 46 8 36 2 66 66 VRB 6 9 30.20 1023 10 16 0.00 0.00
1:15 am 01:15 Clear 48 9 36 2 62 62 NW 6 9 30.19 1022 10 16 0.00 0.00
1:35 am 01:35 Clear 48 9 36 2 62 62 VRB 5 7 30.20 1023 10 16 0.00 0.00
1:55 am 01:55 Clear 46 8 36 2 66 66 VRB 5 7 30.21 1023 10 16 0.00 0.00
2:15 am 02:15 Clear 46 8 36 2 66 66 Calm 30.21 1023 10 16 0.00 0.00
2:35 am 02:35 Clear 46 8 36 2 66 66 VRB 5 7 30.21 1023 10 16 0.00 0.00
2:55 am 02:55 Clear 45 7 36 2 71 71 VRB 3 6 30.21 1023 10 16 0.00 0.00
3:15 am 03:15 Clear 43 6 36 2 76 76 Calm 30.21 1023 10 16 0.00 0.00
3:35 am 03:35 Clear 43 6 36 2 76 76 Calm 30.21 1023 10 16 0.00 0.00
3:55 am 03:55 Clear 43 6 36 2 76 76 Calm 30.20 1023 10 16 0.00 0.00
4:15 am 04:15 Clear 41 5 36 2 81 81 Calm 30.20 1023 10 16 0.00 0.00
4:35 am 04:35 Clear 41 5 36 2 81 81 Calm 30.20 1023 10 16 0.00 0.00
4:55 am 04:55 Clear 39 4 36 2 87 87 Calm 30.21 1023 10 16 0.00 0.00
5:15 am 05:15 Clear 39 4 36 2 87 87 Calm 30.21 1023 10 16 0.00 0.00
5:35 am 05:35 Clear 39 4 36 2 87 87 Calm 30.22 1023 10 16 0.00 0.00
5:55 am 05:55 Clear 37 3 36 2 93 93 W 3 6 30.23 1024 10 16 0.00 0.00
6:15 am 06:15 Clear 37 3 36 2 93 93 Calm 30.23 1024 10 16 0.00 0.00
6:35 am 06:35 Clear 37 3 36 2 93 93 Calm 30.24 1024 10 16 0.00 0.00
6:55 am 06:55 Clear 37 3 36 2 93 93 SW 3 6 30.24 1024 10 16 0.00 0.00
7:15 am 07:15 Clear 37 3 36 2 93 93 Calm 30.25 1024 10 16 0.00 0.00
7:35 am 07:35 Clear 36 2 36 2 100 100 Calm 30.25 1024 10 16 0.00 0.00
7:55 am 07:55 Sunny 36 2 34 1 93 93 Calm 30.26 1025 10 16 0.00 0.00
8:15 am 08:15 Sunny 37 3 36 2 93 93 Calm 30.27 1025 10 16 0.00 0.00
8:35 am 08:35 Sunny 39 4 36 2 87 87 Calm 30.28 1025 10 16 0.00 0.00
8:55 am 08:55 Sunny 39 4 36 2 87 87 Calm 30.28 1025 10 16 0.00 0.00
9:15 am 09:15 Sunny 41 5 37 3 87 87 Calm 30.28 1026 10 16 0.00 0.00
9:35 am 09:35 Sunny 43 6 39 4 87 87 W 5 7 30.28 1025 10 16 0.00 0.00
9:55 am 09:55 Sunny 45 7 39 4 81 81 W 5 7 30.28 1025 10 16 0.00 0.00
10:15 am 10:15 Sunny 46 8 39 4 76 76 WSW 7 11 30.29 1026 10 16 0.00 0.00
10:35 am 10:35 Sunny 50 10 41 5 71 71 W 7 11 30.28 1025 10 16 0.00 0.00
10:55 am 10:55 Sunny 52 11 39 4 62 62 W 10 17 30.29 1026 10 16 0.00 0.00
11:15 am 11:15 Sunny 54 12 39 4 58 58 W 9 15 30.28 1026 10 16 0.00 0.00
11:35 am 11:35 Sunny 55 13 37 3 51 51 VRB 7 11 30.28 1025 10 16 0.00 0.00
11:55 am 11:55 Sunny 57 14 37 3 48 48 W 8 13 30.28 1025 10 16 0.00 0.00
12:15 pm 12:15 Sunny 57 14 37 3 48 48 W 10 17 30.28 1025 10 16 0.00 0.00
12:35 pm 12:35 Sunny 59 15 32 0 36 36 NW 12 19 30.27 1025 10 16 0.00 0.00
12:55 pm 12:55 Sunny 61 16 34 1 36 36 WNW 12 19 30.27 1025 10 16 0.00 0.00
1:15 pm 13:15 Sunny 63 17 34 1 34 34 WNW 13 20 30.26 1025 10 16 0.00 0.00
1:35 pm 13:35 Sunny 63 17 30 -1 30 30 WNW 12 19 30.26 1025 10 16 0.00 0.00
1:55 pm 13:55 Sunny 63 17 30 -1 30 30 W 9 15 30.26 1025 10 16 0.00 0.00
2:15 pm 14:15 Sunny 64 18 28 -2 26 26 VRB 7 11 30.25 1024 10 16 0.00 0.00
2:35 pm 14:35 Sunny 64 18 28 -2 26 26 NW 8 13 30.24 1024 10 16 0.00 0.00
2:55 pm 14:55 Sunny 64 18 25 -4 22 22 WNW 5 7 30.23 1024 10 16 0.00 0.00
3:15 pm 15:15 Sunny 66 19 25 -4 21 21 NNW 9 15 30.22 1024 10 16 0.00 0.00
3:35 pm 15:35 Sunny 66 19 23 -5 19 19 WNW 12 19 30.21 1023 10 16 0.00 0.00
3:55 pm 15:55 Sunny 68 20 25 -4 20 20 NW 8 13 30.21 1023 10 16 0.00 0.00
4:15 pm 16:15 Sunny 68 20 21 -6 17 17 WNW 9 15 30.21 1023 10 16 0.00 0.00
4:35 pm 16:35 Sunny 68 20 27 -3 21 21 VRB 6 9 30.20 1023 10 16 0.00 0.00
4:55 pm 16:55 Sunny 68 20 23 -5 18 18 NNW 10 17 30.20 1023 10 16 0.00 0.00
5:15 pm 17:15 Sunny 68 20 27 -3 21 21 NW 8 13 30.20 1023 10 16 0.00 0.00
5:35 pm 17:35 Sunny 68 20 25 -4 20 20 VRB 7 11 30.19 1022 10 16 0.00 0.00
5:55 pm 17:55 Sunny 66 19 25 -4 21 21 N 12 19 30.19 1023 10 16 0.00 0.00
6:15 pm 18:15 Sunny 68 20 25 -4 20 20 VRB 6 9 30.19 1022 10 16 0.00 0.00
6:35 pm 18:35 Sunny 66 19 27 -3 22 22 VRB 3 6 30.19 1023 10 16 0.00 0.00
6:55 pm 18:55 Sunny 66 19 25 -4 21 21 VRB 5 7 30.19 1023 10 16 0.00 0.00
7:15 pm 19:15 Sunny 64 18 25 -4 22 22 N 5 7 30.21 1023 10 16 0.00 0.00
7:35 pm 19:35 Sunny 64 18 25 -4 22 22 Calm 30.21 1023 10 16 0.00 0.00
7:55 pm 19:55 Clear 63 17 25 -4 24 24 Calm 30.21 1023 10 16 0.00 0.00
8:15 pm 20:15 Clear 61 16 28 -2 29 29 Calm 30.21 1023 10 16 0.00 0.00
8:35 pm 20:35 Clear 59 15 30 -1 34 34 Calm 30.23 1024 10 16 0.00 0.00
8:55 pm 20:55 Clear 57 14 30 -1 36 36 Calm 30.23 1024 10 16 0.00 0.00
9:15 pm 21:15 Clear 54 12 37 3 54 54 Calm 30.23 1024 10 16 0.00 0.00
9:35 pm 21:35 Clear 54 12 34 1 47 47 Calm 30.24 1024 10 16 0.00 0.00
9:55 pm 21:55 Clear 52 11 34 1 50 50 Calm 30.27 1025 10 16 0.00 0.00
10:15 pm 22:15 Clear 50 10 36 2 58 58 Calm 30.27 1025 10 16 0.00 0.00
10:35 pm 22:35 Clear 48 9 36 2 62 62 Calm 30.27 1025 10 16 0.00 0.00
10:55 pm 22:55 Clear 48 9 37 3 66 66 Calm 30.28 1025 10 16 0.00 0.00
11:15 pm 23:15 Clear 48 9 37 3 66 66 Calm 30.28 1025 10 16 0.00 0.00
11:35 pm 23:35 Clear 46 8 36 2 66 66 Calm 30.29 1026 10 16 0.00 0.00
11:55 pm 23:55 Clear 46 8 37 3 71 71 Calm 30.29 1026 10 16 0.00 0.00

Powered by AerisWeather